• In Belgium
  • List of Countries
  • For 7 days
  • Water Temperature
  • Satellite Maps
  • Weather Map
  • Weather Widgets
  • user-avatar
    Login

    Hourly Weather Herentals

    Today, 24 September, Monday

    Time Temperature Precipitation Wind Pressure Humidity
    00:00 +8°C° 0 mm 2 mps 769 mmHg 85%
    01:00 +8°C° 0 mm 2 mps 769 mmHg 85%
    02:00 +8°C° 0 mm 2 mps 770 mmHg 85%
    03:00 +8°C° 0 mm 2 mps 771 mmHg 85%
    04:00 +8°C° 0 mm 2 mps 771 mmHg 85%
    05:00 +8°C° 0 mm 2 mps 772 mmHg 85%
    06:00 +8°C° 0 mm 2 mps 772 mmHg 85%
    07:00 +9°C° 0.1 mm 3 mps 773 mmHg 81%
    08:00 +11°C° 0.1 mm 3 mps 773 mmHg 77%
    09:00 +12°C° 0.1 mm 3 mps 773 mmHg 73%
    10:00 +13°C° 0.2 mm 4 mps 773 mmHg 70%
    11:00 +14°C° 0.2 mm 4 mps 774 mmHg 67%
    12:00 +14°C° 0.2 mm 4 mps 774 mmHg 64%
    13:00 +14°C° 0.1 mm 5 mps 774 mmHg 61%
    14:00 +14°C° 0.1 mm 5 mps 774 mmHg 58%
    15:00 +15°C° 0.1 mm 5 mps 774 mmHg 55%
    16:00 +13°C° 0 mm 4 mps 774 mmHg 60%
    17:00 +12°C° 0 mm 3 mps 774 mmHg 65%
    18:00 +10°C° 0 mm 3 mps 775 mmHg 70%
    19:00 +10°C° 0 mm 2 mps 775 mmHg 72%
    20:00 +9°C° 0 mm 2 mps 776 mmHg 75%
    21:00 +9°C° 0 mm 1 mps 776 mmHg 78%
    22:00 +9°C° 0 mm 1 mps 776 mmHg 80%
    23:00 +9°C° 0 mm 1 mps 776 mmHg 81%

    Tomorrow, 25 September, Tuesday

    Time Temperature Precipitation Wind Pressure Humidity
    00:00 +7°C° 0 mm 0 mps 776 mmHg 83%
    01:00 +7°C° 0 mm 0 mps 776 mmHg 84%
    02:00 +7°C° 0 mm 0 mps 776 mmHg 85%
    03:00 +7°C° 0 mm 0 mps 776 mmHg 85%
    04:00 +7°C° 0 mm 0 mps 776 mmHg 86%
    05:00 +7°C° 0 mm 0 mps 777 mmHg 86%
    06:00 +7°C° 0 mm 0 mps 777 mmHg 86%
    07:00 +10°C° 0 mm 1 mps 777 mmHg 79%
    08:00 +11°C° 0 mm 1 mps 777 mmHg 71%
    09:00 +13°C° 0 mm 1 mps 777 mmHg 64%
    10:00 +14°C° 0 mm 1 mps 777 mmHg 59%
    11:00 +15°C° 0 mm 2 mps 777 mmHg 53%
    12:00 +16°C° 0 mm 2 mps 777 mmHg 48%
    13:00 +16°C° 0 mm 2 mps 776 mmHg 47%
    14:00 +17°C° 0 mm 2 mps 776 mmHg 46%
    15:00 +18°C° 0 mm 1 mps 776 mmHg 45%
    16:00 +15°C° 0 mm 1 mps 776 mmHg 50%
    17:00 +14°C° 0 mm 1 mps 775 mmHg 55%
    18:00 +12°C° 0 mm 1 mps 775 mmHg 59%
    19:00 +12°C° 0 mm 1 mps 776 mmHg 61%
    20:00 +11°C° 0 mm 1 mps 776 mmHg 63%
    21:00 +9°C° 0 mm 2 mps 776 mmHg 65%
    22:00 +9°C° 0 mm 2 mps 776 mmHg 66%
    23:00 +9°C° 0 mm 2 mps 775 mmHg 67%

    Day after tomorrow, 26 September, Wednesday

    Time Temperature Precipitation Wind Pressure Humidity
    00:00 +8°C° 0 mm 2 mps 775 mmHg 68%
    01:00 +8°C° 0 mm 2 mps 775 mmHg 68%
    02:00 +8°C° 0 mm 2 mps 775 mmHg 68%
    03:00 +8°C° 0 mm 1 mps 775 mmHg 68%
    04:00 +7°C° 0 mm 2 mps 774 mmHg 67%
    05:00 +7°C° 0 mm 2 mps 774 mmHg 67%
    06:00 +7°C° 0 mm 2 mps 774 mmHg 66%
    07:00 +9°C° 0 mm 2 mps 774 mmHg 60%
    08:00 +12°C° 0 mm 2 mps 774 mmHg 55%
    09:00 +14°C° 0 mm 2 mps 774 mmHg 49%
    10:00 +16°C° 0 mm 2 mps 774 mmHg 45%
    11:00 +17°C° 0 mm 2 mps 774 mmHg 42%
    12:00 +20°C° 0 mm 1 mps 774 mmHg 38%
    13:00 +20°C° 0 mm 1 mps 773 mmHg 38%
    14:00 +20°C° 0 mm 1 mps 773 mmHg 39%
    15:00 +21°C° 0 mm 1 mps 772 mmHg 39%
    16:00 +19°C° 0 mm 1 mps 772 mmHg 43%
    17:00 +16°C° 0 mm 1 mps 772 mmHg 48%
    18:00 +14°C° 0 mm 1 mps 772 mmHg 53%
    19:00 +14°C° 0 mm 1 mps 773 mmHg 55%
    20:00 +13°C° 0 mm 1 mps 773 mmHg 57%
    21:00 +12°C° 0 mm 1 mps 773 mmHg 58%
    22:00 +12°C° 0 mm 1 mps 773 mmHg 59%
    23:00 +12°C° 0 mm 1 mps 773 mmHg 60%

    27 September, Thursday

    Time Temperature Precipitation Wind Pressure Humidity
    00:00 +12°C° 0 mm 1 mps 773 mmHg 60%
    01:00 +11°C° 0 mm 1 mps 772 mmHg 61%
    02:00 +11°C° 0 mm 1 mps 772 mmHg 62%
    03:00 +11°C° 0 mm 1 mps 772 mmHg 63%
    04:00 +11°C° 0 mm 1 mps 772 mmHg 63%
    05:00 +10°C° 0 mm 1 mps 772 mmHg 64%
    06:00 +10°C° 0 mm 1 mps 772 mmHg 65%
    07:00 +12°C° 0 mm 1 mps 771 mmHg 60%
    08:00 +14°C° 0 mm 2 mps 771 mmHg 55%
    09:00 +17°C° 0 mm 2 mps 771 mmHg 50%
    10:00 +18°C° 0 mm 2 mps 771 mmHg 46%
    11:00 +20°C° 0 mm 2 mps 770 mmHg 43%
    12:00 +21°C° 0 mm 2 mps 770 mmHg 39%
    13:00 +21°C° 0 mm 2 mps 769 mmHg 39%
    14:00 +23°C° 0 mm 2 mps 769 mmHg 40%
    15:00 +23°C° 0 mm 2 mps 768 mmHg 40%
    16:00 +21°C° 0 mm 1 mps 768 mmHg 46%
    17:00 +19°C° 0 mm 1 mps 768 mmHg 51%
    18:00 +16°C° 0 mm 1 mps 768 mmHg 57%
    19:00 +15°C° 0 mm 1 mps 768 mmHg 59%
    20:00 +15°C° 0 mm 1 mps 768 mmHg 60%
    21:00 +14°C° 0 mm 1 mps 767 mmHg 62%
    22:00 +14°C° 0 mm 1 mps 767 mmHg 64%
    23:00 +13°C° 0 mm 1 mps 767 mmHg 66%

    28 September, Friday

    Time Temperature Precipitation Wind Pressure Humidity
    00:00 +13°C° 0 mm 1 mps 766 mmHg 67%
    01:00 +12°C° 0 mm 1 mps 766 mmHg 68%
    02:00 +12°C° 0 mm 1 mps 766 mmHg 69%
    03:00 +12°C° 0 mm 1 mps 765 mmHg 70%
    04:00 +11°C° 0 mm 1 mps 765 mmHg 71%
    05:00 +11°C° 0 mm 1 mps 765 mmHg 72%
    06:00 +11°C° 0 mm 1 mps 765 mmHg 73%
    07:00 +13°C° 0 mm 1 mps 765 mmHg 67%
    08:00 +14°C° 0 mm 0 mps 765 mmHg 61%
    09:00 +16°C° 0 mm 0 mps 765 mmHg 54%
    10:00 +20°C° 0 mm 1 mps 765 mmHg 51%
    11:00 +21°C° 0 mm 1 mps 765 mmHg 47%
    12:00 +21°C° 0 mm 2 mps 765 mmHg 44%
    13:00 +21°C° 0 mm 2 mps 765 mmHg 45%
    14:00 +21°C° 0 mm 3 mps 765 mmHg 47%
    15:00 +21°C° 0 mm 3 mps 765 mmHg 48%
    16:00 +19°C° 0 mm 4 mps 765 mmHg 56%
    17:00 +17°C° 0 mm 4 mps 766 mmHg 64%
    18:00 +15°C° 0 mm 4 mps 766 mmHg 72%
    19:00 +14°C° 0 mm 4 mps 766 mmHg 75%
    20:00 +13°C° 0 mm 5 mps 767 mmHg 78%
    21:00 +12°C° 0 mm 5 mps 768 mmHg 81%
    22:00 +11°C° 0 mm 4 mps 768 mmHg 80%
    23:00 +11°C° 0 mm 4 mps 768 mmHg 80%

    29 September, Saturday

    Time Temperature Precipitation Wind Pressure Humidity
    00:00 +10°C° 0 mm 4 mps 768 mmHg 79%
    01:00 +10°C° 0 mm 4 mps 768 mmHg 80%
    02:00 +8°C° 0 mm 4 mps 768 mmHg 81%
    03:00 +8°C° 0 mm 4 mps 768 mmHg 82%
    04:00 +7°C° 0 mm 4 mps 768 mmHg 84%
    05:00 +7°C° 0 mm 4 mps 769 mmHg 85%
    06:00 +7°C° 0 mm 3 mps 769 mmHg 86%
    07:00 +8°C° 0 mm 4 mps 769 mmHg 78%
    08:00 +11°C° 0 mm 4 mps 769 mmHg 70%
    09:00 +12°C° 0 mm 5 mps 769 mmHg 62%
    10:00 +14°C° 0 mm 5 mps 768 mmHg 58%
    11:00 +15°C° 0 mm 5 mps 768 mmHg 53%
    12:00 +16°C° 0 mm 5 mps 768 mmHg 49%
    13:00 +16°C° 0 mm 5 mps 768 mmHg 47%
    14:00 +16°C° 0 mm 5 mps 767 mmHg 46%
    15:00 +17°C° 0 mm 4 mps 767 mmHg 44%
    16:00 +15°C° 0 mm 4 mps 767 mmHg 47%
    17:00 +13°C° 0 mm 4 mps 767 mmHg 49%
    18:00 +11°C° 0 mm 3 mps 767 mmHg 52%
    19:00 +11°C° 0 mm 3 mps 767 mmHg 52%
    20:00 +10°C° 0 mm 3 mps 767 mmHg 53%
    21:00 +9°C° 0 mm 3 mps 767 mmHg 53%
    22:00 +9°C° 0 mm 3 mps 767 mmHg 56%
    23:00 +8°C° 0 mm 2 mps 766 mmHg 59%
    Show more